Presure
130 127 131 134 125 130 129 134 135 136 96 109 145 149 149 148 147 154 152 154 127 152 154 145 143 141 143 146 146 148 154 147 151 149 149 145 150 152 142 166 143 144 141
120 148 146 131 124 128 136 143 143 101 138 135 132 137 136 152 154 151 152 148 137 149 149 149 142 146 145 141 138 141 156 150 153 151 140 141 134 147 158 133 136 128 113
147 128 133 134 126 132 131 109 134 139 142 128 147 134 142 144 143 144 144 143 144 143 147 153 147 146 140 148 128 124 114 136 135 146 133 141 148 151 105 147 145 120 136
143 148 145 151 132 139 145 120 124 130 134 126 131 125 119 108 133 149 124 130 127 132 149 146 150 142 144 137 147 114 144 152 143 130 142 133 139 122 129 119 137 148 141
97 120 151 140 150 133 153 132 147 131 132 132 131 118 126 135 126 131 126 135 131 133 138 141 126 140 137 138 149 141 137 140 137 134 143 134 143 132 127 128 133 120 88
132 129 141 147 126 127 154 149 156 153 135 147 140 142 140 140 150 133 126 113 123 122 118 124 133 144 153 132 144 147 141 127 157 132 131 142 140 128 132 163 124 124 87
149 134 143 129 148 131 144 117 155 161 121 147 135 117 147 138 150 136 140 118 144 150 130 145 134 137 151 128 117 150 168 157 137 151 129 111 136 83 161 96 135 87 90
133 149 132 131 139 139 131 142 158 153 157 115 135 149 157 126 142 118 131 145 145 159 144 135 145 146 133 151 162 132 171 129 151 163 175 145 149 122 170 85 83 96 111
126 120 101 134 120 114 109 111 131 115 126 125 152 152 137 161 154 159 163 162 159 160 169 164 160 157 159 174 170 174 121 133 155 123 167 81 88 179 86 84 78 81 85
143 155 98 140 117 133 151 145 143 133 127 117 132 148 144 150 144 143 147 137 142 119 159 171 111 165 135 155 169 138 172 170 161 174 167 84 88 91 85 88 82 82 78
147 143 137 148 152 152 143 154 154 174 160 156 173 151 145 162 153 147 152 162 175 161 154 132 129 170 166 160 168 134 130 127 175 125 157 103 88 91 87 87 80 82 91
105 151 155 154 84 113 120 159 177 141 155 154 159 159 160 163 128 142 168 177 167 168 146 121 100 170 135 162 130 102 160 180 127 188 87 119 90 89 81 82 83 82 80
103 135 158 102 125 102 119 106 123 113 102 162 109 111 126 164 139 176 112 173 165 169 171 97 164 166 180 160 168 163 117 130 122 171 125 91 90 94 87 91 90 83 87
160 164 164 165 151 143 186 144 178 152 154 162 177 171 147 166 158 169 173 171 178 173 175 179 110 165 173 121 172 101 105 188 125 110 84 91 90 85 87 92 90 90 115
149 127 167 173 151 135 189 179 176 175 168 168 170 144 181 171 173 177 172 179 172 172 178 100 141 171 164 145 187 186 105 103 179 122 163 96 91 97 92 83 95 96 97
167 169 153 112 88 184 179 178 177 103 179 180 180 186 178 132 181 172 167 178 178 172 180 190 97 104 188 103 124 188 140 102 104 240 111 112 109 99 102 101 95 95 96
182 188 164 180 177 172 174 168 166 107 101 138 168 177 172 179 184 99 121 185 179 175 174 197 186 103 93 153 101 97 112 202 125 106 108 105 99 100 97 94 91 89 99
159 179 180 166 170 173 174 171 127 176 174 159 178 178 171 167 170 168 175 175 185 185 196 173 206 122 111 103 228 101 96 126 97 94 90 88 95 91 93 101 92 101 103
176 173 175 185 166 169 154 156 161 163 168 171 181 184 201 185 187 186 190 192 189 186 175 195 216 216 212 215 213 213 155 111 113 101 102 154 105 106 105 102 85 152 173
177 177 174 168 165 163 161 162 162 182 173 178 186 209 193 200 198 194 182 182 133 222 210 236 233 227 223 228 195 230 229 195 205 192 188 103 101 101 94 190 226 212 233
165 167 185 170 170 170 172 180 190 181 183 198 194 198 197 207 198 211 212 204 213 202 211 207 226 112 221 217 223 197 99 219 220 216 225 103 218 228 207 217 215 201 104
185 180 182 184 186 187 198 182 194 188 203 204 212 201 195 196 204 199 197 208 194 212 198 217 209 205 217 214 195 201 196 208 237 225 214 216 210 224 230 205 238 258 257
192 190 191 174 167 195 189 192 191 204 212 206 201 201 203 209 202 208 208 169 199 197 206 208 210 214 200 214 203 210 150 83 207 169 224 223 222 235 217 196 197 215 240
204 203 205 203 204 208 210 214 209 209 204 202 206 205 209 206 197 204 203 204 196 202 202 205 218 212 212 210 214 220 202 206 203 200 207 216 224 226 217 212 210 237 244
216 217 215 211 212 211 211 207 206 203 205 211 209 199 199 202 208 202 201 195 198 197 209 215 219 194 215 212 218 213 203 194 220 213 212 212 214 218 220 225 225 230 234
210 213 212 210 210 212 208 205 204 203 206 202 201 204 212 209 204 203 203 206 200 206 219 212 202 213 210 200 208 204 202 209 202 206 201 209 210 216 222 228 222 223 225
Wind_Speed
44 41 42 42 36 40 31 34 41 46 16 27 45 46 48 50 51 45 49 49 34 50 49 45 51 48 50 53 54 52 52 49 52 50 48 45 48 49 42 51 46 48 44
37 41 42 45 40 43 40 42 44 22 47 47 44 48 43 47 46 50 50 51 48 52 53 53 49 53 51 50 47 48 54 51 53 52 44 43 35 49 54 37 41 34 26
47 45 46 49 43 46 46 31 45 47 48 41 48 47 49 50 51 53 53 53 53 52 53 56 55 54 49 54 34 33 28 43 40 50 37 47 52 55 21 52 50 30 42
48 47 49 46 50 48 47 39 41 44 48 44 46 41 35 29 47 57 36 40 37 44 57 56 59 52 55 49 58 29 55 59 51 38 50 38 44 31 34 31 43 53 45
27 42 49 53 48 43 52 51 54 49 49 50 50 36 45 52 43 48 42 50 45 50 51 58 35 58 50 51 62 53 48 50 46 43 54 43 50 38 38 38 43 32 13
57 53 54 55 48 47 51 56 56 58 53 59 58 59 60 58 62 52 41 38 37 35 33 36 49 66 71 42 60 59 52 34 67 44 46 52 48 38 46 70 38 36 15
62 59 59 52 57 55 56 43 60 61 43 61 53 41 61 56 65 57 62 45 63 67 47 66 50 58 69 41 34 63 77 69 47 62 40 29 48 12 66 15 48 13 18
61 67 57 51 61 61 56 60 61 63 62 43 55 66 68 52 62 47 52 64 65 73 65 53 67 66 50 73 80 49 80 48 60 70 84 60 62 39 77 12 9 19 30
59 51 34 64 52 47 43 43 57 45 52 50 69 69 60 72 68 73 73 75 74 72 77 79 80 70 80 81 77 82 41 50 71 42 76 19 18 87 14 13 14 15 18
72 72 33 69 50 66 72 75 71 61 57 49 62 69 67 71 67 67 71 59 64 46 77 79 41 80 60 76 81 54 83 82 75 85 81 20 19 21 17 17 18 21 20
74 72 68 75 77 77 75 77 76 76 75 75 76 73 69 75 72 70 73 81 80 79 75 55 56 82 84 79 82 53 49 48 87 46 71 30 22 23 23 21 20 23 27
49 78 80 79 20 46 56 78 76 72 76 78 78 78 78 79 59 65 81 82 82 81 67 49 35 84 58 81 53 32 75 88 50 86 26 46 26 26 24 25 24 26 27
53 72 80 48 64 49 57 49 59 50 38 82 50 52 61 84 66 83 48 80 79 85 85 36 80 80 86 75 83 78 42 51 47 83 51 30 30 31 30 33 33 28 31
87 88 87 87 78 77 83 77 80 79 80 80 85 86 76 84 78 85 84 83 85 86 86 87 46 79 85 52 85 35 37 89 52 42 30 33 33 31 34 35 35 34 48
83 65 90 87 68 64 79 81 82 83 85 84 85 67 88 87 87 90 86 89 87 85 87 44 68 84 80 69 90 90 38 37 84 49 73 40 37 40 38 34 40 40 43
94 94 76 43 36 82 81 81 82 49 83 83 85 88 90 62 90 89 86 91 91 89 92 94 43 45 92 46 60 91 62 39 40 71 46 48 49 44 47 46 43 44 46
100 93 84 85 83 83 82 83 83 54 54 71 86 88 88 88 90 44 56 92 91 89 88 94 94 53 40 74 44 42 51 57 58 45 49 48 46 48 46 44 43 43 51
83 92 89 84 85 84 82 81 56 83 85 76 89 91 89 87 88 87 90 89 93 93 94 90 92 62 56 51 67 46 42 48 44 42 43 42 48 45 48 56 48 58 60
91 91 90 89 85 86 82 84 85 86 89 91 91 92 90 93 92 94 93 93 94 96 88 82 86 82 81 79 77 75 61 57 59 50 52 61 58 61 60 61 45 67 66
93 91 89 87 87 87 87 89 88 93 91 92 91 92 90 91 91 91 92 92 65 78 82 73 71 71 74 67 62 64 65 61 69 60 60 55 56 57 56 70 67 63 67
91 88 96 90 90 90 93 99 98 94 93 98 95 90 91 93 90 90 86 86 81 82 78 77 70 52 70 71 67 63 51 63 64 64 64 59 64 65 72 69 70 71 65
102 99 98 97 98 100 99 97 102 100 102 101 95 94 90 89 88 84 84 84 86 79 83 74 76 76 73 71 71 69 70 70 69 66 67 69 71 67 63 71 61 58 59
100 103 103 90 81 100 99 104 104 105 101 98 96 94 94 90 86 84 82 68 85 85 81 83 83 81 75 75 75 73 59 44 68 61 70 70 69 68 68 70 70 68 62
97 100 103 105 106 105 104 100 100 99 99 98 98 94 92 89 83 84 82 78 82 83 84 86 85 85 84 81 79 77 72 74 72 74 73 71 71 72 70 71 74 68 61
95 97 99 100 100 101 100 97 96 94 99 100 98 91 90 90 90 85 83 79 83 84 90 87 85 83 85 85 83 77 74 72 74 76 76 75 74 75 74 73 72 69 66
91 94 95 96 99 99 98 96 94 92 94 93 96 97 100 96 90 88 89 86 85 93 93 87 86 83 83 82 82 81 80 77 78 77 78 79 79 78 77 74 73 71 70
Wind_Direction
249 255 251 247 251 253 235 242 239 248 247 268 247 251 253 254 257 263 265 268 281 269 271 270 269 273 275 274 276 278 277 281 281 284 284 284 286 286 287 286 292 293 296
261 246 242 251 258 257 245 242 243 253 253 258 266 259 270 260 260 261 261 263 273 267 266 265 271 268 273 278 286 284 276 280 279 281 288 293 296 292 285 296 297 294 291
245 258 253 251 259 256 257 257 256 254 253 259 254 265 261 260 262 262 264 267 269 273 271 267 273 273 281 275 288 289 286 293 291 286 292 294 292 290 295 294 296 300 290
249 254 253 253 255 255 259 261 261 261 262 267 266 265 268 274 270 262 280 276 286 286 270 275 273 282 280 282 279 283 285 280 287 284 288 288 290 275 284 297 290 294 295
242 255 255 255 258 261 258 262 255 261 262 264 266 268 271 273 278 278 279 278 282 283 280 282 280 284 282 284 282 283 284 285 288 287 290 284 291 287 280 282 285 286 327
258 261 255 255 258 264 262 261 263 261 263 259 263 265 267 269 266 277 279 276 279 276 273 280 286 280 278 279 283 283 284 271 284 283 282 287 287 280 287 290 277 292 324
255 260 259 263 259 264 261 265 261 262 266 265 267 267 268 269 268 267 274 276 275 273 276 276 278 279 280 273 263 285 284 285 282 286 275 276 282 279 289 297 280 314 316
260 257 261 255 263 262 265 265 262 263 261 264 269 269 267 271 273 272 277 274 276 274 278 280 280 282 273 283 282 278 283 282 279 284 284 282 280 284 284 290 303 294 288
260 259 247 264 259 255 255 258 267 265 268 267 265 267 273 266 268 270 270 271 272 273 272 273 276 274 279 277 279 279 268 274 285 277 283 271 268 286 279 284 283 292 302
256 256 251 263 262 266 263 266 268 267 268 266 272 269 271 270 274 276 275 279 280 261 275 271 271 274 280 285 280 272 280 282 287 283 288 269 269 272 279 284 289 294 288
255 258 261 259 260 261 265 262 266 264 264 267 262 270 271 268 273 274 275 272 270 274 278 267 275 276 278 282 281 272 274 271 283 272 288 265 265 268 277 280 283 287 296
263 258 257 258 255 264 264 264 268 269 267 268 267 268 268 267 267 268 269 269 271 272 276 270 276 276 274 281 270 271 280 281 275 285 265 279 268 272 277 279 277 278 284
250 260 262 262 263 263 263 260 268 265 271 267 264 263 266 269 269 269 265 272 271 273 274 275 277 279 278 278 281 279 272 274 274 283 278 266 271 271 275 277 281 279 288
262 264 265 267 266 263 270 265 267 267 268 269 267 269 271 271 270 272 272 273 273 274 274 277 272 278 279 273 280 270 269 283 274 268 267 266 269 272 275 278 282 284 288
262 262 265 270 269 265 268 268 268 267 269 270 271 270 271 272 273 274 276 275 276 278 279 272 278 280 280 275 283 283 269 267 285 275 282 268 272 273 274 270 285 287 289
262 264 266 265 264 267 268 268 268 269 270 271 272 273 274 272 275 276 277 277 279 280 281 281 272 274 281 274 270 283 279 270 273 285 275 274 273 275 278 281 283 285 286
264 265 266 267 268 268 269 267 268 264 266 269 272 273 274 275 277 268 273 278 279 280 280 281 281 271 268 281 272 272 273 285 274 277 276 276 276 277 276 278 279 280 283
263 266 265 265 266 267 268 269 269 271 272 273 273 273 273 274 276 277 278 278 279 280 283 280 286 276 273 272 288 273 270 275 272 271 273 273 277 277 279 281 281 284 284
262 263 264 266 264 266 269 270 272 272 272 274 275 277 280 276 278 278 280 282 283 281 278 285 291 290 289 288 286 286 280 273 273 273 273 279 274 275 276 277 276 283 283
262 262 264 264 265 266 268 270 271 273 273 274 277 280 278 281 279 279 280 282 277 289 289 290 289 288 285 286 283 288 290 286 287 286 285 272 272 273 275 283 291 288 287
263 265 264 265 267 268 269 272 274 274 274 279 281 281 281 281 282 285 287 287 288 287 290 289 285 272 284 284 286 286 271 292 292 288 293 272 291 294 285 289 288 286 280
264 265 267 267 268 271 272 274 276 277 277 279 278 280 279 282 285 285 285 287 284 290 288 289 288 289 285 285 286 286 287 290 295 291 287 287 286 292 294 287 300 301 294
262 265 267 269 270 270 271 274 277 276 276 277 278 279 281 283 284 284 285 281 286 288 290 291 288 287 287 287 287 287 282 273 290 285 292 291 293 298 290 285 287 294 296
264 266 266 268 271 272 272 271 273 275 277 278 278 280 281 281 280 282 281 283 283 285 286 287 286 287 287 289 288 288 288 289 290 290 291 293 296 297 290 290 290 303 298
266 266 266 268 269 269 271 272 272 274 276 277 279 279 279 281 281 279 279 278 280 282 288 286 283 285 285 288 288 288 287 288 290 291 292 294 295 297 297 298 298 300 297
266 266 266 268 270 271 272 273 275 275 274 274 276 277 279 279 279 279 280 279 278 283 283 281 281 282 283 285 287 288 290 291 289 291 292 294 294 298 299 298 295 295 295